Time,TemperatureF,DewpointF,PressureIn,WindDirection,WindDirectionDegrees,WindSpeedMPH,WindSpeedGustMPH,Humidity,HourlyPrecipIn,Conditions,Clouds,dailyrainin,SolarRadiationWatts/m^2,SoftwareType,DateUTC
2013-06-09 00:00:00,68.1,26.7,29.71,SW,223,0.0,1.0,21,0.00,,,0.00,0,Wunderground v.1.15,2013-06-09 07:00:00,
2013-06-09 00:10:00,67.6,27.4,29.71,SW,223,0.0,1.0,22,0.00,,,0.00,0,Wunderground v.1.15,2013-06-09 07:10:00,
2013-06-09 00:20:00,68.0,27.7,29.71,SW,223,0.0,1.0,22,0.00,,,0.00,0,Wunderground v.1.15,2013-06-09 07:20:00,
2013-06-09 00:30:00,67.8,27.5,29.71,SW,223,0.0,1.0,22,0.00,,,0.00,0,Wunderground v.1.15,2013-06-09 07:30:00,
2013-06-09 00:40:00,71.5,28.3,29.71,SW,223,0.0,1.0,20,0.00,,,0.00,0,Wunderground v.1.15,2013-06-09 07:40:00,
2013-06-09 00:50:00,71.6,28.4,29.71,ENE,57,0.0,1.0,20,0.00,,,0.00,0,Wunderground v.1.15,2013-06-09 07:50:00,
2013-06-09 01:00:00,70.8,27.7,29.71,ENE,57,0.0,1.0,20,0.00,,,0.00,0,Wunderground v.1.15,2013-06-09 08:00:00,
2013-06-09 01:10:00,68.0,27.7,29.72,ENE,57,0.0,1.0,22,0.00,,,0.00,0,Wunderground v.1.15,2013-06-09 08:10:00,
2013-06-09 01:20:00,69.7,28.0,29.72,ENE,57,0.0,1.0,21,0.00,,,0.00,0,Wunderground v.1.15,2013-06-09 08:20:00,
2013-06-09 01:30:00,69.2,27.6,29.72,North,355,0.0,1.0,21,0.00,,,0.00,0,Wunderground v.1.15,2013-06-09 08:30:00,
2013-06-09 01:40:00,68.1,27.8,29.72,NW,309,0.0,1.0,22,0.00,,,0.00,0,Wunderground v.1.15,2013-06-09 08:40:00,
2013-06-09 01:50:00,66.2,27.3,29.72,West,271,0.0,1.0,23,0.00,,,0.00,0,Wunderground v.1.15,2013-06-09 08:50:00,
2013-06-09 02:00:00,65.1,27.4,29.72,West,271,0.0,1.0,24,0.00,,,0.00,0,Wunderground v.1.15,2013-06-09 09:00:00,
2013-06-09 02:10:00,64.8,27.1,29.72,West,271,0.0,1.0,24,0.00,,,0.00,0,Wunderground v.1.15,2013-06-09 09:10:00,
2013-06-09 02:20:00,64.4,27.8,29.72,West,279,0.0,1.0,25,0.00,,,0.00,0,Wunderground v.1.15,2013-06-09 09:20:00,
2013-06-09 02:30:00,66.1,28.2,29.72,WNW,294,0.0,1.0,24,0.00,,,0.00,0,Wunderground v.1.15,2013-06-09 09:30:00,
2013-06-09 02:40:00,68.2,27.9,29.72,WNW,294,0.0,1.0,22,0.00,,,0.00,0,Wunderground v.1.15,2013-06-09 09:40:00,
2013-06-09 02:50:00,69.1,28.6,29.72,WNW,294,0.0,1.0,22,0.00,,,0.00,0,Wunderground v.1.15,2013-06-09 09:50:00,
2013-06-09 03:00:00,66.5,28.6,29.72,West,281,0.0,1.0,24,0.00,,,0.00,0,Wunderground v.1.15,2013-06-09 10:00:00,
2013-06-09 03:10:00,64.3,28.7,29.72,West,281,0.0,1.0,26,0.00,,,0.00,0,Wunderground v.1.15,2013-06-09 10:10:00,
2013-06-09 03:20:00,62.8,29.2,29.72,West,281,0.0,1.0,28,0.00,,,0.00,0,Wunderground v.1.15,2013-06-09 10:20:00,
2013-06-09 03:30:00,61.7,29.1,29.72,West,281,0.0,1.0,29,0.00,,,0.00,0,Wunderground v.1.15,2013-06-09 10:30:00,
2013-06-09 03:40:00,60.7,28.2,29.72,West,281,0.0,1.0,29,0.00,,,0.00,0,Wunderground v.1.15,2013-06-09 10:40:00,
2013-06-09 03:50:00,58.7,28.1,29.72,West,281,0.0,1.0,31,0.00,,,0.00,0,Wunderground v.1.15,2013-06-09 10:50:00,
2013-06-09 04:00:00,59.0,29.2,29.72,West,281,0.0,1.0,32,0.00,,,0.00,0,Wunderground v.1.15,2013-06-09 11:00:00,
2013-06-09 04:10:00,62.2,30.4,29.72,WNW,292,0.0,1.0,30,0.00,,,0.00,0,Wunderground v.1.15,2013-06-09 11:10:00,
2013-06-09 04:20:00,61.4,29.7,29.72,WSW,237,0.0,1.0,30,0.00,,,0.00,0,Wunderground v.1.15,2013-06-09 11:20:00,
2013-06-09 04:30:00,60.8,29.1,29.73,SSE,151,0.0,1.0,30,0.00,,,0.00,0,Wunderground v.1.15,2013-06-09 11:30:00,
2013-06-09 04:40:00,60.5,28.9,29.72,West,280,0.0,1.0,30,0.00,,,0.00,0,Wunderground v.1.15,2013-06-09 11:40:00,
2013-06-09 04:50:00,60.7,29.9,29.72,West,280,0.0,1.0,31,0.00,,,0.00,0,Wunderground v.1.15,2013-06-09 11:50:00,
2013-06-09 05:00:00,59.3,29.4,29.73,West,277,0.0,1.0,32,0.00,,,0.00,0,Wunderground v.1.15,2013-06-09 12:00:00,
2013-06-09 05:10:00,58.8,29.7,29.73,West,277,0.0,1.0,33,0.00,,,0.00,0,Wunderground v.1.15,2013-06-09 12:10:00,
2013-06-09 05:20:00,59.5,30.3,29.73,West,277,0.0,1.0,33,0.00,,,0.00,7,Wunderground v.1.15,2013-06-09 12:20:00,
2013-06-09 05:30:00,59.7,31.3,29.73,West,277,0.0,1.0,34,0.00,,,0.00,14,Wunderground v.1.15,2013-06-09 12:30:00,
2013-06-09 05:40:00,59.8,31.3,29.74,East,90,0.0,1.0,34,0.00,,,0.00,28,Wunderground v.1.15,2013-06-09 12:40:00,
2013-06-09 05:50:00,60.4,31.9,29.74,East,90,0.0,1.0,34,0.00,,,0.00,49,Wunderground v.1.15,2013-06-09 12:50:00,
2013-06-09 06:00:00,61.5,32.8,29.74,East,90,0.0,1.0,34,0.00,,,0.00,79,Wunderground v.1.15,2013-06-09 13:00:00,
2013-06-09 06:10:00,62.8,34.0,29.75,SSE,165,0.0,0.0,34,0.00,,,0.00,111,Wunderground v.1.15,2013-06-09 13:10:00,
2013-06-09 06:20:00,65.7,39.4,29.75,SSW,211,0.0,0.0,38,0.00,,,0.00,149,Wunderground v.1.15,2013-06-09 13:20:00,
2013-06-09 06:30:00,68.2,41.6,29.75,SSW,195,0.0,0.0,38,0.00,,,0.00,185,Wunderground v.1.15,2013-06-09 13:30:00,
2013-06-09 06:40:00,70.2,42.0,29.75,SW,219,0.0,0.0,36,0.00,,,0.00,220,Wunderground v.1.15,2013-06-09 13:40:00,
2013-06-09 06:50:00,71.7,42.6,29.75,SSW,200,1.0,1.0,35,0.00,,,0.00,255,Wunderground v.1.15,2013-06-09 13:50:00,
2013-06-09 07:00:00,73.0,42.2,29.75,SSW,211,1.0,1.0,33,0.00,,,0.00,290,Wunderground v.1.15,2013-06-09 14:00:00,
2013-06-09 07:10:00,74.2,42.4,29.76,SW,222,0.0,1.0,32,0.00,,,0.00,323,Wunderground v.1.15,2013-06-09 14:10:00,
2013-06-09 07:20:00,75.5,41.0,29.76,SSW,200,0.0,1.0,29,0.00,,,0.00,359,Wunderground v.1.15,2013-06-09 14:20:00,
2013-06-09 07:30:00,76.5,41.0,29.76,SW,233,0.0,1.0,28,0.00,,,0.00,396,Wunderground v.1.15,2013-06-09 14:30:00,
2013-06-09 07:40:00,77.5,40.9,29.76,WSW,248,0.0,1.0,27,0.00,,,0.00,427,Wunderground v.1.15,2013-06-09 14:40:00,
2013-06-09 07:50:00,78.6,39.8,29.77,WSW,254,0.0,1.0,25,0.00,,,0.00,464,Wunderground v.1.15,2013-06-09 14:50:00,
2013-06-09 08:00:00,79.4,40.5,29.77,WSW,254,0.0,1.0,25,0.00,,,0.00,497,Wunderground v.1.15,2013-06-09 15:00:00,
2013-06-09 08:10:00,80.2,40.1,29.77,South,171,0.0,0.0,24,0.00,,,0.00,534,Wunderground v.1.15,2013-06-09 15:10:00,
2013-06-09 08:20:00,81.7,40.3,29.77,NW,320,0.0,1.0,23,0.00,,,0.00,564,Wunderground v.1.15,2013-06-09 15:20:00,
2013-06-09 08:30:00,82.2,39.6,29.77,North,9,0.0,0.0,22,0.00,,,0.00,599,Wunderground v.1.15,2013-06-09 15:30:00,
2013-06-09 08:40:00,83.9,38.5,29.77,SSW,213,0.0,0.0,20,0.00,,,0.00,631,Wunderground v.1.15,2013-06-09 15:40:00,
2013-06-09 08:50:00,84.2,37.5,29.77,West,280,0.0,0.0,19,0.00,,,0.00,661,Wunderground v.1.15,2013-06-09 15:50:00,
2013-06-09 09:00:00,84.9,38.0,29.77,NNE,28,0.0,0.0,19,0.00,,,0.00,691,Wunderground v.1.15,2013-06-09 16:00:00,
2013-06-09 09:10:00,85.5,38.5,29.77,West,278,1.0,1.0,19,0.00,,,0.00,717,Wunderground v.1.15,2013-06-09 16:10:00,
2013-06-09 09:20:00,85.8,37.4,29.77,WNW,288,2.0,2.0,18,0.00,,,0.00,747,Wunderground v.1.15,2013-06-09 16:20:00,
2013-06-09 09:30:00,87.1,37.0,29.77,WNW,302,1.0,1.0,17,0.00,,,0.00,770,Wunderground v.1.15,2013-06-09 16:30:00,
2013-06-09 09:40:00,88.3,36.4,29.77,WNW,299,1.0,1.0,16,0.00,,,0.00,798,Wunderground v.1.15,2013-06-09 16:40:00,
2013-06-09 09:50:00,87.8,36.0,29.76,South,180,0.0,0.0,16,0.00,,,0.00,821,Wunderground v.1.15,2013-06-09 16:50:00,
2013-06-09 10:00:00,89.0,37.0,29.76,West,275,1.0,1.0,16,0.00,,,0.00,844,Wunderground v.1.15,2013-06-09 17:00:00,
2013-06-09 10:10:00,90.2,34.6,29.76,NNE,25,0.0,0.0,14,0.00,,,0.00,867,Wunderground v.1.15,2013-06-09 17:10:00,
2013-06-09 10:20:00,90.5,34.8,29.76,NW,307,0.0,3.0,14,0.00,,,0.00,888,Wunderground v.1.15,2013-06-09 17:20:00,
2013-06-09 10:30:00,92.1,30.0,29.76,North,355,1.0,9.0,11,0.00,,,0.00,911,Wunderground v.1.15,2013-06-09 17:30:00,
2013-06-09 10:40:00,92.9,28.3,29.75,NNE,14,6.0,9.0,10,0.00,,,0.00,911,Wunderground v.1.15,2013-06-09 17:40:00,
2013-06-09 10:50:00,92.9,28.3,29.76,NNW,346,6.0,8.0,10,0.00,,,0.00,942,Wunderground v.1.15,2013-06-09 17:50:00,
2013-06-09 11:00:00,93.7,26.3,29.76,NW,316,7.0,11.0,9,0.00,,,0.00,956,Wunderground v.1.15,2013-06-09 18:00:00,
2013-06-09 11:10:00,93.9,26.5,29.75,NW,321,6.0,6.0,9,0.00,,,0.00,969,Wunderground v.1.15,2013-06-09 18:10:00,
2013-06-09 11:20:00,94.5,26.9,29.75,NW,311,7.0,9.0,9,0.00,,,0.00,979,Wunderground v.1.15,2013-06-09 18:20:00,
2013-06-09 11:30:00,94.5,24.1,29.75,NW,316,8.0,8.0,8,0.00,,,0.00,990,Wunderground v.1.15,2013-06-09 18:30:00,
2013-06-09 11:40:00,95.3,24.7,29.75,North,355,6.0,9.0,8,0.00,,,0.00,997,Wunderground v.1.15,2013-06-09 18:40:00,
2013-06-09 11:50:00,95.8,25.1,29.75,NW,326,4.0,10.0,8,0.00,,,0.00,1002,Wunderground v.1.15,2013-06-09 18:50:00,
2013-06-09 12:00:00,94.9,24.4,29.74,NW,307,9.0,11.0,8,0.00,,,0.00,1004,Wunderground v.1.15,2013-06-09 19:00:00,
2013-06-09 12:10:00,96.3,25.4,29.74,NNW,327,6.0,6.0,8,0.00,,,0.00,1011,Wunderground v.1.15,2013-06-09 19:10:00,
2013-06-09 12:20:00,97.3,26.2,29.74,WNW,295,6.0,23.0,8,0.00,,,0.00,1013,Wunderground v.1.15,2013-06-09 19:20:00,
2013-06-09 12:30:00,97.4,26.2,29.74,North,360,6.0,6.0,8,0.00,,,0.00,1009,Wunderground v.1.15,2013-06-09 19:30:00,
2013-06-09 13:20:00,98.3,23.7,29.72,North,360,6.0,6.0,7,0.00,,,0.00,983,Wunderground v.1.15,2013-06-09 20:20:00,
2013-06-09 13:30:00,98.5,23.8,29.71,WNW,302,7.0,8.0,7,0.00,,,0.00,972,Wunderground v.1.15,2013-06-09 20:30:00,
2013-06-09 13:40:00,99.5,20.9,29.71,NNW,327,6.0,6.0,6,0.00,,,0.00,963,Wunderground v.1.15,2013-06-09 20:40:00,
2013-06-09 13:50:00,99.3,20.8,29.71,West,265,6.0,6.0,6,0.00,,,0.00,946,Wunderground v.1.15,2013-06-09 20:50:00,
2013-06-09 14:00:00,100.1,21.3,29.70,North,5,4.0,9.0,6,0.00,,,0.00,932,Wunderground v.1.15,2013-06-09 21:00:00,
2013-06-09 14:10:00,99.8,21.1,29.70,NNW,329,7.0,17.0,6,0.00,,,0.00,914,Wunderground v.1.15,2013-06-09 21:10:00,
2013-06-09 14:20:00,99.3,20.8,29.70,WNW,296,7.0,17.0,6,0.00,,,0.00,898,Wunderground v.1.15,2013-06-09 21:20:00,
2013-06-09 14:30:00,99.5,20.9,29.69,North,355,8.0,8.0,6,0.00,,,0.00,875,Wunderground v.1.15,2013-06-09 21:30:00,
2013-06-09 14:40:00,99.3,20.8,29.69,North,355,7.0,7.0,6,0.00,,,0.00,854,Wunderground v.1.15,2013-06-09 21:40:00,
2013-06-09 14:50:00,99.3,20.8,29.69,NNW,347,7.0,17.0,6,0.00,,,0.00,831,Wunderground v.1.15,2013-06-09 21:50:00,
2013-06-09 15:00:00,99.9,21.2,29.69,NW,316,8.0,8.0,6,0.00,,,0.00,809,Wunderground v.1.15,2013-06-09 22:00:00,
2013-06-09 15:10:00,99.5,20.9,29.68,North,351,9.0,14.0,6,0.00,,,0.00,780,Wunderground v.1.15,2013-06-09 22:10:00,
2013-06-09 15:20:00,98.7,20.3,29.68,North,11,10.0,10.0,6,0.00,,,0.00,756,Wunderground v.1.15,2013-06-09 22:20:00,
2013-06-09 15:30:00,99.0,20.5,29.68,NNE,16,9.0,10.0,6,0.00,,,0.00,726,Wunderground v.1.15,2013-06-09 22:30:00,
2013-06-09 15:40:00,99.3,20.8,29.68,NNW,347,8.0,10.0,6,0.00,,,0.00,700,Wunderground v.1.15,2013-06-09 22:40:00,
2013-06-09 15:50:00,98.9,20.5,29.68,NNW,329,9.0,10.0,6,0.00,,,0.00,670,Wunderground v.1.15,2013-06-09 22:50:00,
2013-06-09 16:00:00,98.8,20.4,29.67,North,355,9.0,9.0,6,0.00,,,0.00,640,Wunderground v.1.15,2013-06-09 23:00:00,
2013-06-09 16:10:00,99.0,24.2,29.67,NNW,340,8.0,8.0,7,0.00,,,0.00,606,Wunderground v.1.15,2013-06-09 23:10:00,
2013-06-09 16:20:00,98.9,24.1,29.66,North,360,9.0,18.0,7,0.00,,,0.00,575,Wunderground v.1.15,2013-06-09 23:20:00,
2013-06-09 16:30:00,98.4,23.8,29.66,North,355,8.0,18.0,7,0.00,,,0.00,543,Wunderground v.1.15,2013-06-09 23:30:00,
2013-06-09 16:40:00,98.0,23.5,29.66,North,5,10.0,18.0,7,0.00,,,0.00,510,Wunderground v.1.15,2013-06-09 23:40:00,
2013-06-09 16:50:00,97.7,23.3,29.66,North,5,10.0,18.0,7,0.00,,,0.00,476,Wunderground v.1.15,2013-06-09 23:50:00,
2013-06-09 17:00:00,97.9,23.4,29.66,NNW,348,9.0,18.0,7,0.00,,,0.00,445,Wunderground v.1.15,2013-06-10 00:00:00,
2013-06-09 17:10:00,97.5,23.1,29.66,NNE,15,10.0,10.0,7,0.00,,,0.00,406,Wunderground v.1.15,2013-06-10 00:10:00,
2013-06-09 17:20:00,97.1,22.8,29.66,NNW,333,10.0,10.0,7,0.00,,,0.00,371,Wunderground v.1.15,2013-06-10 00:20:00,
2013-06-09 17:30:00,96.8,22.6,29.66,North,350,10.0,13.0,7,0.00,,,0.00,334,Wunderground v.1.15,2013-06-10 00:30:00,
2013-06-09 17:40:00,96.4,22.3,29.66,NW,311,9.0,19.0,7,0.00,,,0.00,302,Wunderground v.1.15,2013-06-10 00:40:00,
2013-06-09 17:50:00,96.1,22.1,29.66,NNW,330,9.0,9.0,7,0.00,,,0.00,267,Wunderground v.1.15,2013-06-10 00:50:00,
2013-06-09 18:00:00,95.6,21.7,29.66,NNW,340,8.0,11.0,7,0.00,,,0.00,232,Wunderground v.1.15,2013-06-10 01:00:00,
2013-06-09 18:10:00,95.3,21.5,29.66,NW,311,9.0,9.0,7,0.00,,,0.00,192,Wunderground v.1.15,2013-06-10 01:10:00,
2013-06-09 18:20:00,94.6,21.0,29.66,North,355,8.0,17.0,7,0.00,,,0.00,149,Wunderground v.1.15,2013-06-10 01:20:00,
2013-06-09 18:30:00,94.1,20.6,29.67,NW,316,8.0,17.0,7,0.00,,,0.00,111,Wunderground v.1.15,2013-06-10 01:30:00,
2013-06-09 18:40:00,93.5,20.2,29.67,NW,321,9.0,9.0,7,0.00,,,0.00,77,Wunderground v.1.15,2013-06-10 01:40:00,
2013-06-09 18:50:00,92.8,19.7,29.68,NNW,340,8.0,17.0,7,0.00,,,0.00,47,Wunderground v.1.15,2013-06-10 01:50:00,
2013-06-09 19:00:00,92.0,19.1,29.68,North,355,7.0,17.0,7,0.00,,,0.00,25,Wunderground v.1.15,2013-06-10 02:00:00,
2013-06-09 19:10:00,91.3,18.6,29.68,NNW,335,7.0,7.0,7,0.00,,,0.00,14,Wunderground v.1.15,2013-06-10 02:10:00,
2013-06-09 19:20:00,90.3,17.9,29.68,NNW,333,6.0,6.0,7,0.00,,,0.00,7,Wunderground v.1.15,2013-06-10 02:20:00,
2013-06-09 19:30:00,89.1,20.1,29.68,NW,320,3.0,6.0,8,0.00,,,0.00,0,Wunderground v.1.15,2013-06-10 02:30:00,
2013-06-09 19:40:00,88.0,19.3,29.69,NW,322,2.0,2.0,8,0.00,,,0.00,0,Wunderground v.1.15,2013-06-10 02:40:00,
2013-06-09 19:50:00,87.3,18.8,29.69,NNW,327,1.0,1.0,8,0.00,,,0.00,0,Wunderground v.1.15,2013-06-10 02:50:00,
2013-06-09 20:00:00,85.9,20.5,29.68,NW,319,0.0,0.0,9,0.00,,,0.00,0,Wunderground v.1.15,2013-06-10 03:00:00,
2013-06-09 20:10:00,84.7,19.6,29.69,NW,323,0.0,17.0,9,0.00,,,0.00,0,Wunderground v.1.15,2013-06-10 03:10:00,
2013-06-09 20:20:00,83.6,21.2,29.70,NNW,327,0.0,17.0,10,0.00,,,0.00,0,Wunderground v.1.15,2013-06-10 03:20:00,
2013-06-09 20:30:00,81.8,22.1,29.70,NNW,327,0.0,17.0,11,0.00,,,0.00,0,Wunderground v.1.15,2013-06-10 03:30:00,
2013-06-09 20:40:00,80.7,21.3,29.70,NNW,327,0.0,17.0,11,0.00,,,0.00,0,Wunderground v.1.15,2013-06-10 03:40:00,
2013-06-09 20:50:00,79.4,22.3,29.71,NNW,327,0.0,17.0,12,0.00,,,0.00,0,Wunderground v.1.15,2013-06-10 03:50:00,
2013-06-09 21:00:00,79.7,22.6,29.72,NNW,331,0.0,17.0,12,0.00,,,0.00,0,Wunderground v.1.15,2013-06-10 04:00:00,
2013-06-09 21:10:00,79.8,22.6,29.72,NW,324,0.0,1.0,12,0.00,,,0.00,0,Wunderground v.1.15,2013-06-10 04:10:00,
2013-06-09 21:20:00,80.2,23.0,29.72,NNW,329,0.0,1.0,12,0.00,,,0.00,0,Wunderground v.1.15,2013-06-10 04:20:00,
2013-06-09 21:30:00,79.8,22.6,29.72,NW,308,0.0,0.0,12,0.00,,,0.00,0,Wunderground v.1.15,2013-06-10 04:30:00,
2013-06-09 21:40:00,79.3,24.2,29.72,NW,319,0.0,0.0,13,0.00,,,0.00,0,Wunderground v.1.15,2013-06-10 04:40:00,
2013-06-09 21:50:00,79.4,24.2,29.72,NW,320,0.0,0.0,13,0.00,,,0.00,0,Wunderground v.1.15,2013-06-10 04:50:00,
2013-06-09 22:00:00,78.7,23.7,29.73,NW,320,0.0,0.0,13,0.00,,,0.00,0,Wunderground v.1.15,2013-06-10 05:00:00,
2013-06-09 22:10:00,77.9,24.8,29.73,NW,320,0.0,4.0,14,0.00,,,0.00,0,Wunderground v.1.15,2013-06-10 05:10:00,
2013-06-09 22:20:00,77.0,24.1,29.73,NW,320,0.0,4.0,14,0.00,,,0.00,0,Wunderground v.1.15,2013-06-10 05:20:00,
2013-06-09 22:30:00,76.4,23.6,29.72,NW,314,0.0,4.0,14,0.00,,,0.00,0,Wunderground v.1.15,2013-06-10 05:30:00,
2013-06-09 22:40:00,76.7,23.9,29.73,NW,309,0.0,4.0,14,0.00,,,0.00,0,Wunderground v.1.15,2013-06-10 05:40:00,
2013-06-09 22:50:00,77.7,24.7,29.72,NW,315,1.0,1.0,14,0.00,,,0.00,0,Wunderground v.1.15,2013-06-10 05:50:00,
2013-06-09 23:00:00,76.0,25.0,29.72,North,360,0.0,4.0,15,0.00,,,0.00,0,Wunderground v.1.15,2013-06-10 06:00:00,
2013-06-09 23:10:00,76.1,25.1,29.73,NNW,347,0.0,4.0,15,0.00,,,0.00,0,Wunderground v.1.15,2013-06-10 06:10:00,
2013-06-09 23:20:00,75.6,24.7,29.73,NNW,347,0.0,4.0,15,0.00,,,0.00,0,Wunderground v.1.15,2013-06-10 06:20:00,
2013-06-09 23:30:00,73.7,24.7,29.73,North,5,0.0,4.0,16,0.00,,,0.00,0,Wunderground v.1.15,2013-06-10 06:30:00,
2013-06-09 23:40:00,72.6,23.8,29.73,North,5,0.0,4.0,16,0.00,,,0.00,0,Wunderground v.1.15,2013-06-10 06:40:00,
2013-06-09 23:50:00,71.8,24.6,29.73,North,5,0.0,4.0,17,0.00,,,0.00,0,Wunderground v.1.15,2013-06-10 06:50:00,